Home   Weather   Niamey   Past weeks
Flag for Niger

Past Weather in Niamey, Niger — Yesterday and Last 2 Weeks

Now
106 °F

Passing clouds.


Feels Like: 104 °F
Forecast: 104 / 83 °F
Wind: 7 mph from Southeast

Location: Niamey-Aero

Current Time: Apr 8, 2020 at 2:33:19 pm

Latest Report: Apr 8, 2020 at 2:00 pm


Visibility: N/A

Pressure: 29.74 "Hg

Humidity: 18%

Dew Point: 54 °F

Location of NiameyLocation

Past Weather in Niamey — Graph

°F

Niamey Temperature Yesterday

Maximum temperature yesterday: 111 °F (at 4:00 pm)
Minimum temperature yesterday: 86 °F (at 2:00 am)
Average temperature yesterday: 98 °F

High & Low Weather Summary for the Past Weeks

 TemperatureHumidityPressure
High111 °F (Apr 3, 2:00 pm)51% (Mar 25, 6:00 am)29.89 "Hg (Mar 25, 6:00 am)
Low79 °F (Mar 28, 6:00 am)3% (Apr 4, 3:00 pm)29.65 "Hg (Mar 30, 4:00 pm)
Average95 °F12%29.78 "Hg
* Reported Mar 24 1:00 pm — Apr 8 1:00 pm, Niamey. Weather by CustomWeather, © 2020

Note: Actual official high and low records may vary slightly from our data, if they occured in-between our weather recording intervals... More about our weather records

Niamey Weather History for the Previous 24 Hours

Scroll right to see more
 ConditionsComfort  
Time TempWeatherWind HumidityBarometerVisibility
1:00 pm
Wed, Apr 8
104 °FPassing clouds.9 mph20%29.80 "HgN/A
12:00 pm102 °FPassing clouds.12 mph24%29.83 "HgN/A
11:00 am100 °FClear.10 mph25%29.83 "Hg6 mi
10:00 am95 °FClear.7 mph28%29.83 "Hg5 mi
9:00 am93 °FClear.9 mph28%29.80 "Hg5 mi
8:00 am91 °FClear.8 mph34%29.80 "Hg4 mi
7:00 am91 °FClear.12 mph32%29.77 "Hg5 mi
6:00 am90 °FClear.6 mph31%29.74 "Hg10 mi
5:00 am90 °FClear.7 mph31%29.74 "Hg10 mi
4:00 am93 °FClear.7 mph24%29.74 "Hg10 mi
3:00 am93 °FClear.5 mph23%29.74 "Hg10 mi
2:00 am93 °FClear.2 mph23%29.74 "Hg10 mi
1:00 am95 °FClear.1 mph14%29.77 "Hg10 mi
12:00 am95 °FClear.2 mph15%29.77 "Hg10 mi
11:00 pm
Tue, Apr 7
97 °FClear.3 mph16%29.77 "Hg5 mi
10:00 pm99 °FClear.3 mph14%29.77 "Hg5 mi
9:00 pm100 °FClear.2 mph11%29.74 "Hg5 mi
8:00 pm104 °FClear.2 mph10%29.71 "Hg5 mi
7:00 pm106 °FPassing clouds.3 mph9%29.71 "Hg5 mi
6:00 pm108 °FSunny.No wind9%29.68 "Hg10 mi
5:00 pm109 °FPassing clouds.5 mph8%29.68 "HgN/A
4:00 pm111 °FSunny.7 mph9%29.71 "Hg10 mi
3:00 pm109 °FSunny.7 mph10%29.71 "Hg10 mi
2:00 pm108 °FPassing clouds.7 mph13%29.77 "HgN/A
Weather by CustomWeather, © 2020

See weather overview

Advertising